Regional Weather Roundup
Issued by NWS Jackson, KY

Home | Current Version | Previous Version | Text Only | Print | Product List | Glossary Off
Versions: 1 2 3 4 5 6 7 8 9 10 11 12 13 14 15 16 17 18 19 20 21 22 23 24 25 26 27 28 29

000
ASUS43 KJKL 090210
RWRJKL

EAST KENTUCKY HOURLY WEATHER ROUNDUP
NATIONAL WEATHER SERVICE JACKSON KY
900 PM EST THU DEC 08 2016

NOTE: "FAIR" INDICATES FEW OR NO CLOUDS BELOW 12,000 FEET WITH
NO SIGNIFICANT WEATHER AND/OR OBSTRUCTIONS TO VISIBILITY.

* THESE REPORTS ARE NOT UNDER NWS QUALITY CONTROL AND MAY NOT
  REPORT WEATHER SUCH AS PRECIPITATION AND FOG.

KYZ079-080-083-085-087-088-110-112-115-119-120-090300
...EASTERN KENTUCKY...

CITY           SKY/WX    TMP DP  RH WIND       PRES   REMARKS
JACKSON        CLEAR     27  14  58 VRB5      30.34R WCI  22
LONDON         CLEAR     26  14  60 W7        30.39R WCI  18
SOMERSET*      CLEAR     28  14  54 CALM      30.44R
MONTICELLO*    CLEAR     25  18  74 NW6       30.45R WCI  18
MIDDLESBORO*   CLEAR     30  16  56 NW7       30.39R WCI  23
HARLAN APT*    CLEAR     30  18  59 SW6       30.35R WCI  24
PIKE CO APT*     N/A     28  16  62 W7        30.33R WCI  20
BIG SANDY APT* PTCLDY    29  16  58 W7        30.34R WCI  22
MOREHEAD APT*  PTCLDY    27  16  63 NW8G15    30.39R WCI  18
ASHLAND*       CLEAR     27  16  63 N13       30.37R WCI  16
$$

KYZ035-036-041-042-044-050-067-078-099-090300
...CENTRAL KENTUCKY...

CITY           SKY/WX    TMP DP  RH WIND       PRES   REMARKS
MT STERLING*   CLEAR     27  18  69 N6        30.40R WCI  20
FLEMING/MASON* CLOUDY    24  14  67 NW7       30.40S WCI  16
DANVILLE*      CLEAR     27  18  69 NW6       30.42R WCI  20
LEXINGTON      CLEAR     24  13  62 NW10      30.41R WCI  14
FRANKFORT      PTCLDY    24  13  62 W8        30.42R WCI  15
LOUISVILLE     CLOUDY    27  11  51 NW15      30.48R WCI  15
LEBANON*       MOCLDY    25  16  68 NW6       30.44R WCI  18
GLASGOW*       MOCLDY    27  18  70 W3        30.46S
BOWLING GREEN  CLEAR     29  16  58 NW8       30.50R WCI  21
$$

KYZ091>093-OHZ055-061-077-WVZ005-015-034-035-042-090300
...SOUTHERN OHIO/WEST VIRGINIA...

CITY           SKY/WX    TMP DP  RH WIND       PRES   REMARKS
COVINGTON      FLURRIES  23  13  65 W14       30.41R WCI  11
COLUMBUS       MOCLDY    22  14  71 W18       30.33S WCI   7
DAYTON         FLURRIES  20  13  74 NW14      30.38R WCI   7
WILMINGTON     FLURRIES  22  16  78 W13G22    30.36R WCI  10
HUNTINGTON     PTCLDY    28  16  60 NW9       30.36R WCI  19
CHARLESTON     PTCLDY    28  16  60 NW7       30.32R WCI  21
PINEVILLE*       N/A     29  12  49 MISG      30.32R
BECKLEY        CLOUDY    25  11  55 W15       30.21R WCI  13
BLUEFIELD      PTCLDY    23  11  60 NW15G22   30.19R WCI  10
LOGAN CO APT*  CLOUDY    28  16  59 CALM      30.28S
$$

VAZ002-007-008-TNZ017-027-036-066-071-090300
...SOUTHWEST VIRGINIA/EAST TENNESSEE...

CITY           SKY/WX    TMP DP  RH WIND       PRES   REMARKS
WISE*          CLEAR     27  14  59 NW10      30.26R WCI  17
ABINGDON*      CLEAR     32  14  47 N10G16    30.26R WCI  24
BRISTOL        PTCLDY    32  14  47 W12       30.29R WCI  23
MORRISTOWN*    CLEAR     32  14  47 N9        30.34R WCI  24
SEVIERVILLE*   CLEAR     32  16  51 NW3       30.36R
KNOXVILLE      MOCLDY    35  15  44 W9        30.36R WCI  28
OAK RIDGE      PTCLDY    34  15  46 CALM      30.39R
CROSSVILLE     CLEAR     27  14  58 NW8       30.37R WCI  19
NASHVILLE      CLEAR     31  14  49 NW6       30.49R WCI  25
$$

...KEY TO REMARKS...
VSB - VISIBILITY IN MILES
WCI - WIND CHILL INDEX
HX  - HEAT INDEX

$$




USA.gov is the U.S. government's official web portal to all federal, state and local government web resources and services.